Location: Civry
(47.2902°N, 4.6156°E)
Time: 09:20:14
(UTC+00:00)

Iridium 4 Rocket - Pass Details

Date: 09 April 2020
Orbit: 585 x 904 km, 86.9° (Epoch: 24 May)

Event Time Altitude Azimuth Distance (km) Brightness Sun altitude
Rises 19:52:08 0° 5° (N) 2,853 6.8 -14.9°
Reaches altitude 10° 19:54:33 10° 16° (NNE) 1,928 5.8 -15.2°
Maximum altitude 19:58:18 31° 80° (E) 1,041 3.8 -15.8°
Enters shadow 19:59:09 28° 103° (ESE) 1,102 3.8 -15.9°
